ARIANE 40 R/B (22830 NORAD) Tracking and Keplerian Element Data

This shows tracking and keplerian element data for the satellite.

Feedback or suggestion? Click here.




ElementValue
Catalog22830
NameARIANE 40 R/B
Epoch Orbit58175
Epoch Day13.18862265
Epoch Year2024
RAAN82.5366
Inclination98.5926
Eccentricity0.0011917
Argument of Perigee89.0753
Mean Anonmoly271.1796
Mean Motion14.31961686
Decay Rate4.21E-06
L11 22830U 93061H 24013.18862265 .00000421 00000+0 17330-3 0 9995
L22 22830 98.5926 82.5366 0011917 89.0753 271.1796 14.31961686581751



Live tracking and technical data element details for ARIANE 40 R/B (NORAD 22830). ARIANE 40 R/B can be tracked NOW for your location showing map with azimuth and elevation plus other details from your city location.







IsCatalogInMostPopularTable: catalog: 22830, numindb: 435
Update: records affected: 1



GetName: 22830 ARIANE 40 R/B

Hit Count: updated at: Fri, 19 Apr 2024 12:02:51 GMT